AL7BX-WX Weather Reports


Display with metric or nautical units.
time (UTC)temp
F
wind
direction
speed
MPH
gust
MPH
rain 1hr
in
rain 24hr
in
rain mn
in
humidity
%
barometer
mb
20260906001803 80 327 9.0 21.0 0.00 0.00 0.00 27
20260906000903 80 360 9.0 21.0 0.00 0.00 0.00 26
20260906000003 80 359 10.0 18.0 0.00 0.00 0.00 27
20260905235403 81 359 10.0 19.0 0.00 0.00 0.00 27
20260905234503 81 360 10.0 20.0 0.00 0.00 0.00 27
20260905233603 81 360 11.0 22.0 0.00 0.00 0.00 27
20260905232703 81 360 13.0 25.0 0.00 0.00 0.00 26
20260905231803 81 360 11.0 20.0 0.00 0.00 0.00 26
20260905230903 81 360 12.0 23.0 0.00 0.00 0.00 26
20260905230213 81 360 11.0 22.0 0.00 0.00 0.00 26
20260905225403 82 360 10.0 21.0 0.00 0.00 0.00 26
20260905224712 82 360 12.0 22.0 0.00 0.00 0.00 26
20260905223814 82 360 12.0 25.0 0.00 0.00 0.00 24
20260905222703 82 360 14.0 25.0 0.00 0.00 0.00 25
20260905221803 83 360 10.0 20.0 0.00 0.00 0.00 24
20260905220903 83 359 10.0 30.0 0.00 0.00 0.00 25
20260905220213 82 353 11.0 23.0 0.00 0.00 0.00 25
20260905215403 82 328 11.0 24.0 0.00 0.00 0.00 27
20260905214503 82 341 10.0 20.0 0.00 0.00 0.00 27
20260905213603 82 312 10.0 19.0 0.00 0.00 0.00 27
20260905212703 82 213 11.0 24.0 0.00 0.00 0.00 27
20260905212014 82 197 12.0 24.0 0.00 0.00 0.00 27
20260905210903 82 191 13.0 26.0 0.00 0.00 0.00 25
20260905210003 82 182 12.0 28.0 0.00 0.00 0.00 26
20260905205403 82 188 11.0 28.0 0.00 0.00 0.00 26
20260905204714 82 187 10.0 19.0 0.00 0.00 0.00 27
20260905203603 82 289 12.0 23.0 0.00 0.00 0.00 27
20260905202703 81 286 12.0 23.0 0.00 0.00 0.00 27
20260905201803 81 359 14.0 30.0 0.00 0.00 0.00 27
20260905201113 81 345 14.0 29.0 0.00 0.00 0.00 27
20260905200003 81 281 14.0 24.0 0.00 0.00 0.00 27
20260905195403 81 293 13.0 31.0 0.00 0.00 0.00 27
20260905194503 81 292 12.0 24.0 0.00 0.00 0.00 28
20260905193603 80 203 13.0 27.0 0.00 0.00 0.00 27
20260905192914 80 194 12.0 24.0 0.00 0.00 0.00 26
20260905192013 80 195 12.0 28.0 0.00 0.00 0.00 28
20260905190903 79 192 13.0 28.0 0.00 0.00 0.00 27
20260905190003 79 189 13.0 28.0 0.00 0.00 0.00 26
20260905185403 79 187 14.0 31.0 0.00 0.00 0.00 29
20260905184713 78 185 15.0 32.0 0.00 0.00 0.00 29
20260905183603 78 180 13.0 26.0 0.00 0.00 0.00 30
20260905182703 78 180 10.0 22.0 0.00 0.00 0.00 29
20260905181803 78 186 10.0 20.0 0.00 0.00 0.00 30
20260905180903 77 190 12.0 26.0 0.00 0.00 0.00 30
20260905180003 78 183 10.0 21.0 0.00 0.00 0.00 28
20260905175404 77 176 9.0 19.0 0.00 0.00 0.00 30
20260905174503 77 188 12.0 25.0 0.00 0.00 0.00 29
20260905173603 76 185 12.0 24.0 0.00 0.00 0.00 29
20260905172913 76 187 10.0 24.0 0.00 0.00 0.00 29
20260905171803 76 187 12.0 21.0 0.00 0.00 0.00 30
20260905170903 76 186 11.0 23.0 0.00 0.00 0.00 32
20260905170003 75 185 10.0 22.0 0.00 0.00 0.00 32
20260905165403 75 189 9.0 20.0 0.00 0.00 0.00 32
20260905164503 75 178 10.0 20.0 0.00 0.00 0.00 31
20260905163814 75 179 9.0 17.0 0.00 0.00 0.00 32
20260905162913 74 177 6.0 15.0 0.00 0.00 0.00 32
20260905161803 74 176 8.0 17.0 0.00 0.00 0.00 31
20260905160903 72 187 7.0 13.0 0.00 0.00 0.00 31
20260905160003 71 183 7.0 14.0 0.00 0.00 0.00 31
20260905155403 70 170 6.0 14.0 0.00 0.00 0.00 34
20260905154503 68 184 5.0 13.0 0.00 0.00 0.00 32
20260905153603 68 185 5.0 11.0 0.00 0.00 0.00 30
20260905152703 68 193 5.0 11.0 0.00 0.00 0.00 31
20260905151803 68 189 4.0 10.0 0.00 0.00 0.00 31
20260905150903 66 183 1.0 5.0 0.00 0.00 0.00 35
20260905150003 63 198 0.0 1.0 0.00 0.00 0.00 42
20260905145403 61 198 0.0 2.0 0.00 0.00 0.00 43
20260905144503 59 198 0.0 1.0 0.00 0.00 0.00 47
20260905143603 58 198 0.0 1.0 0.00 0.00 0.00 44
20260905142703 59 198 0.0 2.0 0.00 0.00 0.00 43
20260905141803 58 193 2.0 5.0 0.00 0.00 0.00 39
20260905140903 57 188 1.0 4.0 0.00 0.00 0.00 39
20260905140004 56 188 0.0 2.0 0.00 0.00 0.00 40
20260905135403 56 188 0.0 3.0 0.00 0.00 0.00 41
20260905134504 56 188 1.0 3.0 0.00 0.00 0.00 41
20260905133603 57 188 1.0 3.0 0.00 0.00 0.00 39
20260905132703 57 188 2.0 4.0 0.00 0.00 0.00 38
20260905131803 57 189 1.0 3.0 0.00 0.00 0.00 39
20260905131112 57 190 1.0 4.0 0.00 0.00 0.00 38
20260905130003 58 182 2.0 4.0 0.00 0.00 0.00 37
20260905125613 58 182 2.0 5.0 0.00 0.00 0.00 37
20260905124503 58 183 2.0 4.0 0.00 0.00 0.00 37
20260905123603 58 183 2.0 4.0 0.00 0.00 0.00 38
20260905122913 58 183 1.0 4.0 0.00 0.00 0.00 38
20260905121803 59 182 2.0 5.0 0.00 0.00 0.00 39
20260905120903 59 184 3.0 6.0 0.00 0.00 0.00 38
20260905120004 60 184 2.0 5.0 0.00 0.00 0.00 38
20260905115403 60 181 2.0 4.0 0.00 0.00 0.00 38
20260905114503 61 180 1.0 3.0 0.00 0.00 0.00 38
20260905113603 61 201 2.0 4.0 0.00 0.00 0.00 37
20260905112703 61 222 2.0 5.0 0.00 0.00 0.00 38
20260905111803 62 213 2.0 6.0 0.00 0.00 0.00 37
20260905110903 62 229 2.0 6.0 0.00 0.00 0.00 37
20260905110003 62 236 2.0 5.0 0.00 0.00 0.00 36
20260905105403 62 232 2.0 5.0 0.00 0.00 0.00 36
20260905104503 62 217 1.0 4.0 0.00 0.00 0.00 36
20260905103603 62 228 1.0 5.0 0.00 0.00 0.00 36
20260905102912 62 241 2.0 5.0 0.00 0.00 0.00 36
20260905101803 62 253 3.0 6.0 0.00 0.00 0.00 36
20260905100903 63 248 3.0 10.0 0.00 0.00 0.00 35
20260905100003 63 240 3.0 10.0 0.00 0.00 0.00 34
20260905095403 64 223 2.0 9.0 0.00 0.00 0.00 34
20260905094503 64 233 2.0 12.0 0.00 0.00 0.00 34
20260905093603 65 214 3.0 10.0 0.00 0.00 0.00 33
20260905092703 65 205 4.0 10.0 0.00 0.00 0.00 33
20260905091803 65 202 4.0 10.0 0.00 0.00 0.00 33
20260905090903 66 196 4.0 7.0 0.00 0.00 0.00 32
20260905090214 66 189 4.0 9.0 0.00 0.00 0.00 31
20260905085403 66 194 4.0 10.0 0.00 0.00 0.00 31
20260905084713 66 196 5.0 11.0 0.00 0.00 0.00 31
20260905083603 66 191 4.0 11.0 0.00 0.00 0.00 31
20260905082703 66 199 4.0 11.0 0.00 0.00 0.00 31
20260905081803 66 202 4.0 9.0 0.00 0.00 0.00 30
20260905080903 66 203 4.0 9.0 0.00 0.00 0.00 30
20260905080003 66 199 4.0 8.0 0.00 0.00 0.00 30
20260905075403 67 196 4.0 7.0 0.00 0.00 0.00 29
20260905074503 68 188 6.0 11.0 0.00 0.00 0.00 28
20260905073603 68 185 6.0 16.0 0.00 0.00 0.00 27
20260905072703 69 182 6.0 14.0 0.00 0.00 0.00 26
20260905071803 69 170 6.0 14.0 0.00 0.00 0.00 26
20260905070903 69 170 7.0 14.0 0.00 0.00 0.00 26
20260905070003 69 171 6.0 13.0 0.00 0.00 0.00 26
20260905065403 69 171 6.0 12.0 0.00 0.00 0.00 26
20260905064712 70 168 7.0 16.0 0.00 0.00 0.00 26
20260905063603 70 165 6.0 15.0 0.00 0.00 0.00 26
20260905062703 70 174 6.0 14.0 0.00 0.00 0.00 26
20260905061803 70 170 7.0 16.0 0.00 0.00 0.00 26
20260905060903 71 174 7.0 16.0 0.00 0.00 0.00 26
20260905060008 71 171 7.0 14.0 0.00 0.00 0.00 26
20260905055403 71 171 6.0 15.0 0.00 0.00 0.00 26
20260905054503 71 171 7.0 19.0 0.00 0.00 0.00 26
20260905053813 71 175 7.0 18.0 0.00 0.00 0.00 27
20260905052703 70 166 6.0 12.0 0.00 0.00 0.00 27
20260905051803 70 172 6.0 13.0 0.00 0.00 0.00 28
20260905050903 70 168 6.0 12.0 0.00 0.00 0.00 28
20260905050004 71 162 6.0 12.0 0.00 0.00 0.00 28
20260905045403 71 160 5.0 11.0 0.00 0.00 0.00 28
20260905044503 71 158 6.0 12.0 0.00 0.00 0.00 28
20260905043603 71 158 5.0 13.0 0.00 0.00 0.00 28
20260905042703 72 148 5.0 13.0 0.00 0.00 0.00 28
20260905041803 72 143 5.0 12.0 0.00 0.00 0.00 29
20260905041113 71 148 4.0 10.0 0.00 0.00 0.00 30
20260905040212 70 148 3.0 7.0 0.00 0.00 0.00 31
20260905035403 70 175 2.0 6.0 0.00 0.00 0.00 31
20260905034503 71 142 3.0 6.0 0.00 0.00 0.00 32
20260905033603 71 146 2.0 5.0 0.00 0.00 0.00 32
20260905032703 72 151 3.0 10.0 0.00 0.00 0.00 31
20260905031803 72 170 5.0 12.0 0.00 0.00 0.00 31
20260905030903 72 175 4.0 11.0 0.00 0.00 0.00 31
20260905030214 72 181 5.0 13.0 0.00 0.00 0.00 31
20260905025614 72 188 6.0 13.0 0.00 0.00 0.00 31
20260905024503 72 202 4.0 13.0 0.00 0.00 0.00 31
20260905023814 72 205 5.0 10.0 0.00 0.00 0.00 31
20260905022703 73 189 6.0 13.0 0.00 0.00 0.00 30
20260905022013 73 192 6.0 13.0 0.00 0.00 0.00 30
20260905020903 74 191 7.0 17.0 0.00 0.00 0.00 30
20260905020003 74 194 7.0 17.0 0.00 0.00 0.00 30
20260905015403 75 191 7.0 19.0 0.00 0.00 0.00 30
20260905014503 76 189 8.0 19.0 0.00 0.00 0.00 29
20260905013603 77 188 9.0 21.0 0.00 0.00 0.00 28
20260905012703 77 187 9.0 22.0 0.00 0.00 0.00 29
20260905011803 77 189 10.0 20.0 0.00 0.00 0.00 29
20260905010903 78 186 9.0 22.0 0.00 0.00 0.00 28
20260905010003 79 186 10.0 22.0 0.00 0.00 0.00 27
20260905005613 79 188 10.0 20.0 0.00 0.00 0.00 27
20260905004503 79 183 11.0 21.0 0.00 0.00 0.00 27
20260905003603 80 182 9.0 23.0 0.00 0.00 0.00 28
20260905002913 80 187 10.0 20.0 0.00 0.00 0.00 28